Location: Düngen
(52.0952°N, 10.0219°E)
Time: 09:28:53
(UTC+00:00)

Cosmos 2297 - Visible Passes

Search period start: 09 June 2026 00:00
Search period end: 19 June 2026 00:00
Orbit: 834 x 858 km, 71.0° (Epoch: 9 June)

Date Brightness Start Highest point End Pass type
(mag) Time Alt. Az. Time Alt. Az. Time Alt. Az.
9 Jun 5.4 00:11:15 11° SSE 00:15:26 23° ESE 00:19:49 10° NE visible
9 Jun 3.9 01:53:16 10° SW 01:59:00 75° WNW 02:04:46 10° NNE visible
9 Jun 5.4 23:57:46 12° SSE 00:01:39 23° ESE 00:05:59 10° NE visible
10 Jun 3.8 01:39:39 11° SW 01:45:12 77° WNW 01:50:58 10° NNE visible
10 Jun 5.4 23:44:14 12° SE 23:47:52 22° ESE 23:52:08 10° NE visible
11 Jun 3.8 01:26:08 13° SW 01:31:23 79° WNW 01:37:10 10° NNE visible
11 Jun 5.4 23:30:41 13° SE 23:34:04 21° E 23:38:18 10° NE visible
12 Jun 3.8 01:12:34 14° SW 01:17:36 80° WNW 01:23:22 10° NNE visible
12 Jun 5.4 23:17:05 13° SE 23:20:19 21° E 23:24:27 10° NE visible
13 Jun 3.8 00:58:58 15° SSW 01:03:48 82° WNW 01:09:33 10° NNE visible
13 Jun 5.4 23:03:28 14° SE 23:06:31 20° E 23:10:36 10° NE visible
14 Jun 3.8 00:45:21 16° SSW 00:50:00 84° WNW 00:55:46 10° NNE visible
14 Jun 5.4 22:49:48 14° SE 22:52:45 20° E 22:56:46 10° NE visible
15 Jun 3.8 00:31:41 17° SSW 00:36:12 85° WNW 00:41:58 10° NNE visible
15 Jun 5.4 22:36:07 14° SE 22:38:58 19° E 22:42:55 10° NE visible
16 Jun 3.7 00:17:59 18° SSW 00:22:23 87° WNW 00:28:10 10° NNE visible
16 Jun 5.5 02:02:42 10° W 02:07:21 25° NW 02:12:01 10° NNE visible
16 Jun 5.4 22:22:23 13° SE 22:25:12 19° E 22:29:04 10° ENE visible
17 Jun 3.7 00:04:15 18° SSW 00:08:36 89° NW 00:14:22 10° NNE visible
17 Jun 5.5 01:48:50 10° W 01:53:32 25° NW 01:58:14 10° NNE visible
17 Jun 5.4 22:08:37 13° SE 22:11:25 18° E 22:15:13 10° ENE visible
17 Jun 3.7 23:50:29 18° SSW 23:54:48 89° ESE 00:00:34 10° NNE visible
18 Jun 5.5 01:34:59 10° W 01:39:43 26° NW 01:44:26 10° NNE visible
18 Jun 5.4 21:54:48 13° SE 21:57:39 18° E 22:01:22 10° ENE visible
18 Jun 3.7 23:36:40 18° SSW 23:41:00 88° ESE 23:46:46 10° NNE visible
